Preview of NWS' New Version of Forecast
This preview is not operational and should not be used for support decisions.

Regional Weather Roundup (RWR)

Issued by National Weather Service (NWS)

                            
000
ASUS43 KDMX 181506
RWRIA 

WEATHER ROUNDUP FOR IOWA
NATIONAL WEATHER SERVICE DES MOINES IA
1000 AM CDT TUE JUN 18 2019

NOTE: "FAIR" INDICATES FEW OR NO CLOUDS BELOW 12,000 FEET WITH NO
SIGNIFICANT WEATHER AND/OR OBSTRUCTIONS TO VISIBILITY.

* - THESE STATIONS ARE NOT NWS STATIONS...THUS NOT UNDER NWS
QUALITY CONTROL.  THEY ALSO DO NOT REPORT WEATHER SUCH 
AS PRECIPITATION OR FOG.  

IAZ001>003-012>014-020>022-031>034-043>046-181600-
   NORTHWEST IOWA
  
CITY           SKY/WX    TMP DP  RH WIND       PRES   REMARKS
CARROLL *      HVY RAIN  63  63 100 NE10      29.99R VSB 1            
CHEROKEE *     CLOUDY    62  61  96 CALM      30.01S                  
DENISON *      CLOUDY    63  63 100 NE14      30.00S                  
LE MARS *      CLOUDY    64  59  82 E8        30.01S                  
SHELDON *      SUNNY     68  55  64 NE9       30.00S                  
SIOUX CITY     CLOUDY    62  59  90 E6        30.01S                  
SPENCER        CLOUDY    68  55  63 NE8       30.01S                  
STORM LAKE *   DRIZZLE   59  59 100 NE8       29.99S                  
$$
 
IAZ055>058-069>071-079>083-090>094-181600-
   SOUTHWEST IOWA
  
CITY           SKY/WX    TMP DP  RH WIND       PRES   REMARKS
ATLANTIC *     LGT RAIN  68  68 100 CALM      29.96S                  
AUDUBON *      RAIN      66  63  88 CALM      29.99S                  
CLARINDA *     MOSUNNY   75  66  73 CALM      29.97F                  
COUNCIL BLFS * PTSUNNY   66  66 100 E6        29.94F FOG              
CRESTON *      PTSUNNY   72  63  73 CALM      29.97F                  
HARLAN  *      SUNNY     66  66 100 E6        29.97F                  
LAMONI         PTSUNNY   71  63  75 CALM      29.97S                  
RED OAK *      PTSUNNY   72  66  83 CALM      29.96F                  
SHENANDOAH *   CLOUDY    72  68  88 CALM      29.95S                  
$$
 
IAZ047>049-059>061-072>074-084-181600-
   CENTRAL IOWA
  
CITY           SKY/WX    TMP DP  RH WIND       PRES   REMARKS
AMES           LGT RAIN  66  64  93 N7        29.97F                  
ANKENY *       MOSUNNY   72  64  78 NW5       29.97F                  
BOONE *        LGT RAIN  66  64  94 NE9       29.97F                  
CHARITON *     PTSUNNY   72  66  83 VRB5      29.97S                  
DES MOINES     LGT RAIN  71  63  75 CALM      29.96F                  
GRINNELL*      PTSUNNY   69  64  83 NW3       29.99S                  
KNOXVILLE *    MOSUNNY   70  63  78 NW5       29.97S                  
MARSHALLTOWN   CLOUDY    67  66  97 W7        29.97S                  
NEWTON *       MOSUNNY   70  66  88 CALM      29.98S                  
PELLA *        SUNNY     70  62  76 CALM      29.99S                  
PERRY *        CLOUDY    69  69  99 CALM      29.97F                  
$$
 
IAZ004>006-015-016-023>025-035-036-181600-
   NORTH CENTRAL IOWA
  
CITY           SKY/WX    TMP DP  RH WIND       PRES   REMARKS
ALGONA *       MOSUNNY   63  63 100 N5        30.00S                  
CLARION *      CLOUDY    63  61  94 NE10      30.00S                  
ESTHERVILLE    MOSUNNY   65  55  70 N8        30.01S                  
FORT DODGE *   LGT RAIN  61  60  97 N7        30.00S                  
MASON CITY     LGT RAIN  63  61  93 N8        30.01S                  
FOREST CITY *  LGT RAIN  63  61  94 N5        30.01S                  
IOWA FALLS *   DRIZZLE   65  65  97 W5        30.00F                  
$$

IAZ007>011-017>019-026>030-037>042-050>054-066-181600-
   NORTHEAST IOWA
  
CITY           SKY/WX    TMP DP  RH WIND       PRES   REMARKS
CEDAR RAPIDS   PTSUNNY   68  62  81 NW6       29.97S                  
CHARLES CITY * LGT RAIN  63  61  94 N9        29.99S                  
CLINTON *      PTSUNNY   79  64  60 CALM      29.97F HX  81           
DECORAH *      LGT RAIN  63  63 100 NW8G16    29.97S                  
DUBUQUE        FAIR      68  61  78 SW5       29.97F                  
MONTICELLO *   FAIR      68  64  88 CALM      29.97S                  
OELWEIN *      CLOUDY    66  66 100 SW6       29.99S FOG              
WATERLOO       LGT RAIN  66  64  93 SW7       29.97S FOG              
$$
 
IAZ064-065-067-068-078-181600-
   EAST CENTRAL IOWA
  
CITY           SKY/WX    TMP DP  RH WIND       PRES   REMARKS
DAVENPORT      FAIR      70  60  70 W3        29.99R                  
IOWA CITY      FAIR      69  61  75 CALM      29.98F                  
MT. PLEASANT * MOSUNNY   73  64  73 CALM      29.97S                  
MUSCATINE *    PTSUNNY   70  61  73 CALM      29.98R                  
QUAD CITIES    FAIR      74  61  63 CALM      29.96S                  
$$
 
IAZ062-063-075>077-085>089-095>099-181600-
   SOUTHEAST IOWA
  
CITY           SKY/WX    TMP DP  RH WIND       PRES   REMARKS
BURLINGTON     CLOUDY    70  60  70 CALM      29.96S                  
FAIRFIELD *    PTSUNNY   72  63  73 CALM      29.96F                  
FORT MADISON * CLOUDY    70  64  83 CALM      29.98R                  
KEOKUK *       PTSUNNY   72  63  73 E3        29.96S                  
OSKALOOSA *    FAIR      70  62  76 CALM      29.98S                  
CENTERVILLE *  PTSUNNY   72  64  78 CALM      29.99R                  
OTTUMWA        MOSUNNY   70  63  78 CALM      29.97S                  
WASHINGTON *   MOSUNNY   70  70 100 S3        29.98S                  
$$

ABBREVIATIONS USED IN REMARKS
   TC - TEMPERATURES IN CELSIUS
  WCI - WIND CHILL INDEX
   HX - HEAT INDEX
  VSB - VISIBILITY  
$$